Terug naar catalogus

DELTA 1 DEB

ActiefSSO
NORAD 7034·DEBRIS·🇺🇸 United States

Gelanceerd Nov 6, 1973 vanaf Vandenberg Space Force Base

Loading…

Volgende Passages (komende 24 uur)

TLE

VersSource: Space-Track

Epoch: Sep 14, 2026, 11:11 UTC

1 07034U 73086AA  26257.46623339 -.00000028  00000-0  12469-3 0  9992
2 07034 102.1356 239.4034 0015742 201.7386 310.1722 12.43856983397021

Volg DELTA 1 DEB in realtime met AllMySat

Download on the App Store